Location: Unspecified
(0.0000°N, 0.0000°E)
Time: 12:35:47
(UTC+00:00)

Vanguard 3 - Pass Details

Date: 16 December 2017
Orbit: 508 x 3264 km, 33.3° (Epoch: 24 April)

Event Time Altitude Azimuth Distance (km) Brightness Sun altitude
Rises 19:52:43 0° 296° (WNW) 3,646 11.0 -26.6°
Reaches altitude 10° 19:54:51 10° 293° (WNW) 2,944 10.5 -27.1°
Maximum altitude 20:02:13 64° 212° (SSW) 1,735 8.8 -28.7°
Drops below altitude 10° 20:15:45 10° 133° (SE) 5,163 11.0 -31.7°
Sets 20:20:47 0° 130° (SE) 6,557 11.6 -32.9°
